Dauntless Aviation
Airports North America Canada
CJS4

Moose Jaw Municipal Airport

Moose Jaw, CANADA

Airport Info
Suggest Updated Information for this Airport

Location

Latitude / Longitude: 50°26'3"N / 105°23'13"W
  50°26.052'N / 105°23.22'W
  50.4342 / -105.3870

Instrument Procedures

  CAC: Aerodrome Chart
  Airport Diagram

IAPs (Instrument Approach Procedures)

  CFS: Aerodrome Information
Satellite photo at:
Airport distance calculator
From:
Weather Reports

METAR

TAF

CYMJ
9.0nm S
TAF CYMJ 281208Z 2812/2824 30015KT P6SM FEW040 BECMG 2821/2823 32010KT RMK NXT FCST BY 290000Z
CYQR
27.5nm E
TAF AMD CYQR 281320Z 2813/2912 30012G22KT P6SM BKN020 TEMPO 2813/2816 SCT020 FM281600 32018G28KT P6SM SCT030 FM282000 33015G25KT P6SM SCT060 FM290100 03008KT P6SM FEW090 SCT250 FM290600 10008KT P6SM BKN150 RMK NXT FCST BY 281800Z
Safelog

 

Dauntless Aviation

© 2007-2020 Dauntless Aviation, all rights reserved
Information provided via PilotNav comes from a variety of official and unofficial data sources. As errors are possible, do not use PilotNav for primary flight planning purposes. Verify any information that you receive via PilotNav with current and canonical charts and other official documents. The material in this database is subject to database copyrights held by Dauntless Aviation and may not be copied without the express permission of Dauntless Aviation - licenses for use of part of all of this data are available for purchase; enquire via the Dauntless Aviation helpdesk. A number of mechanisms and markers exist in the database to protect against and identify infringement / copyright. Automated queries against this website are stictly prohibited, and all activity is logged and analyzed.